Flag for Germany Weather past 2 weeks in Jülich, North Rhine-Westphalia, Germany

Now
68 °F

Passing clouds.


Feels Like: 68 °F
Forecast: 59 / 78 °F
Wind: 1 mph from West

Location: Geilenkirchen Airport

Current Time: Jul 31, 2014 at 11:46:16 AM

Latest Report: Jul 31, 2014 at 10:50 AM


Visibility: N/A

Pressure: 30.04 "Hg

Humidity: 69%

Dew point: 57 °F

Location of JülichLocation

Historic Weather in Jülich — Graph

°F

Jülich temperature yesterday

Maximum temperature yesterday: 73 °F (at 2:50 PM)
Minimum temperature yesterday: 63 °F (at 4:50 AM)
Average temperature yesterday: 67 °F

Past Weeks' High & Low Weather Summary

 TemperatureHumidityPressure
High84 °F (Jul 17, 3:50 PM)100% (Jul 17, 5:50 AM)30.18 "Hg (Jul 17, 5:50 AM)
Low55 °F (Jul 31, 3:50 AM)42% (Jul 16, 3:50 PM)29.83 "Hg (Jul 29, 2:50 PM)
Average69 °F82%29.98 "Hg
* Reported Jul 16 10:50 AM — Jul 31 10:50 AM, Jülich, Weather by CustomWeather, © 2014

Note: Actual official high and low records may vary slightly from our data, if they occured in-between our weather recording intervals... More about our weather records

Advertising

Jülich weather history for previous 24 hours

 ConditionsComfort  
Time TempWeatherWind HumidityBarometerVisibility
10:50 AM
Jul 31
68 °FPassing clouds.1 mph69%30.04 "HgN/A
9:50 AM64 °FPassing clouds.No wind73%30.04 "HgN/A
8:50 AM63 °FSunny.1 mph83%30.04 "Hg10 mi
7:50 AM59 °FSunny.1 mph94%30.04 "Hg10 mi
6:50 AM57 °FClear.No wind94%30.04 "Hg10 mi
5:50 AM55 °FClear.No wind100%30.01 "Hg10 mi
4:50 AM55 °FClear.1 mph100%30.04 "Hg10 mi
3:50 AM55 °FClear.3 mph100%30.04 "Hg10 mi
2:50 AM57 °FPassing clouds.5 mph94%30.04 "HgN/A
1:50 AM59 °FPassing clouds.6 mph88%30.04 "HgN/A
12:50 AM61 °FPassing clouds.6 mph88%30.01 "HgN/A
11:50 PM
Jul 30
63 °FPassing clouds.5 mph88%30.01 "HgN/A
10:50 PM63 °FClear.7 mph88%30.01 "Hg10 mi
9:50 PM64 °FScattered clouds.6 mph83%29.98 "HgN/A
8:50 PM68 °FScattered clouds.6 mph73%29.98 "HgN/A
7:50 PM70 °FBroken clouds.7 mph73%29.95 "HgN/A
6:50 PM72 °FBroken clouds.9 mph65%29.95 "HgN/A
5:50 PM73 °FScattered clouds.9 mph57%29.95 "HgN/A
4:50 PM72 °FScattered clouds.7 mph69%29.95 "HgN/A
3:50 PM72 °FScattered clouds.14 mph69%29.95 "HgN/A
2:50 PM73 °FScattered clouds.9 mph65%29.95 "HgN/A
1:50 PM72 °FScattered clouds.7 mph69%29.95 "HgN/A
12:50 PM70 °FScattered clouds.9 mph69%29.95 "HgN/A
11:50 AM68 °FScattered clouds.8 mph73%29.95 "HgN/A
Weather by CustomWeather, © 2014

See weather overviewHow to use our weather pages